2023/08/24 00:00:00,62.5,21.1
2023/08/24 00:10:00,62.5,21.0
2023/08/24 00:20:00,62.6,21.2
2023/08/24 00:30:00,62.5,21.0
2023/08/24 00:40:00,62.6,21.1
2023/08/24 00:50:00,62.5,21.0
2023/08/24 01:00:00,62.6,21.2
2023/08/24 01:10:00,62.6,21.2
2023/08/24 01:20:00,62.6,21.0
2023/08/24 01:30:00,62.5,21.0
2023/08/24 01:40:00,62.5,20.8
2023/08/24 01:50:00,58.5,20.5
2023/08/24 02:00:00,62.4,20.7
2023/08/24 02:10:00,62.5,20.5
2023/08/24 02:20:00,62.4,20.5
2023/08/24 02:30:00,62.4,20.4
2023/08/24 02:40:00,62.2,20.4
2023/08/24 02:50:00,60.7,20.4
2023/08/24 03:00:00,61.6,20.0
2023/08/24 03:10:00,61.9,20.3
2023/08/24 03:20:00,61.8,20.2
2023/08/24 03:30:00,61.7,20.2
2023/08/24 03:40:00,61.5,20.2
2023/08/24 03:50:00,61.4,19.9
2023/08/24 04:00:00,61.2,20.1
2023/08/24 04:10:00,61.0,19.9
2023/08/24 04:20:00,60.6,19.7
2023/08/24 04:30:00,60.5,20.0
2023/08/24 04:40:00,60.1,19.7
2023/08/24 04:50:00,59.9,19.9
2023/08/24 05:00:00,59.5,19.7
2023/08/24 05:10:00,59.4,19.8
2023/08/24 05:20:00,58.9,19.8
2023/08/24 05:30:00,58.5,19.7
2023/08/24 05:40:00,58.4,19.8
2023/08/24 05:50:00,58.2,19.8
2023/08/24 06:00:00,57.9,20.0
2023/08/24 06:10:00,57.7,19.9
2023/08/24 06:20:00,57.6,19.9
2023/08/24 06:30:00,57.4,20.2
2023/08/24 06:40:00,57.1,20.3
2023/08/24 06:50:00,57.0,20.4
2023/08/24 07:00:00,56.9,20.5
2023/08/24 07:10:00,56.8,20.6
2023/08/24 07:20:00,56.6,20.8
2023/08/24 07:30:00,56.6,21.2
2023/08/24 07:40:00,56.6,21.4
2023/08/24 07:50:00,56.5,21.7
2023/08/24 08:00:00,56.4,22.0
2023/08/24 08:10:00,56.4,22.5
2023/08/24 08:20:00,56.5,22.7
2023/08/24 08:30:00,56.4,22.6
2023/08/24 08:40:00,56.4,22.7
2023/08/24 08:50:00,56.3,23.2
2023/08/24 09:00:00,56.1,24.1
2023/08/24 09:10:00,56.3,25.4
2023/08/24 09:20:00,56.0,25.9
2023/08/24 09:30:00,55.5,26.1
2023/08/24 09:40:00,55.7,26.4
2023/08/24 09:50:00,56.0,26.6
2023/08/24 10:00:00,55.9,27.0
2023/08/24 10:10:00,56.3,27.1
2023/08/24 10:20:00,56.4,27.2
2023/08/24 10:30:00,56.6,27.4
2023/08/24 10:40:00,56.6,28.0
2023/08/24 10:50:00,---,28.4
2023/08/24 11:00:00,55.7,29.3
2023/08/24 11:10:00,39.8,28.6
2023/08/24 11:20:00,45.0,27.8
2023/08/24 11:30:00,56.3,26.7
2023/08/24 11:40:00,56.7,27.7
2023/08/24 11:50:00,56.8,27.1
2023/08/24 12:00:00,56.9,28.1
2023/08/24 12:10:00,57.0,27.3
2023/08/24 12:20:00,57.5,26.6
2023/08/24 12:30:00,57.6,26.0
2023/08/24 12:40:00,58.0,25.7
2023/08/24 12:50:00,58.2,26.0
2023/08/24 13:00:00,58.5,25.3
2023/08/24 13:10:00,57.9,25.4
2023/08/24 13:20:00,57.1,25.0
2023/08/24 13:30:00,57.7,25.3
2023/08/24 13:40:00,58.1,26.0
2023/08/24 13:50:00,58.1,27.2
2023/08/24 14:00:00,57.6,28.1
2023/08/24 14:10:00,57.3,28.8
2023/08/24 14:20:00,57.1,28.6
2023/08/24 14:30:00,56.9,27.6
2023/08/24 14:40:00,57.0,28.2
2023/08/24 14:50:00,56.1,28.0
2023/08/24 15:00:00,55.6,28.0
2023/08/24 15:10:00,56.6,29.2
2023/08/24 15:20:00, 0.0,28.6
2023/08/24 15:30:00, 0.0,28.8
2023/08/24 15:40:00,56.6,28.8
2023/08/24 15:50:00,56.8,28.1
2023/08/24 16:00:00,57.5,29.7
2023/08/24 16:10:00,57.4,29.3
2023/08/24 16:20:00,57.3,28.3
2023/08/24 16:30:00,57.9,28.5
2023/08/24 16:40:00,57.9,28.0
2023/08/24 16:50:00,58.5,27.5
2023/08/24 17:00:00,58.7,27.1
2023/08/24 17:10:00,58.8,26.8
2023/08/24 17:20:00,58.9,26.3
2023/08/24 17:30:00,58.9,25.9
2023/08/24 17:40:00,59.1,25.3
2023/08/24 17:50:00,59.3,25.1
2023/08/24 18:00:00,59.5,24.7
2023/08/24 18:10:00,59.5,24.4
2023/08/24 18:20:00,59.6,24.3
2023/08/24 18:30:00,59.7,24.3
2023/08/24 18:40:00,59.7,24.2
2023/08/24 18:50:00,59.8,24.1
2023/08/24 19:00:00,59.9,23.8
2023/08/24 19:10:00,60.1,24.0
2023/08/24 19:20:00,60.3,23.9
2023/08/24 19:30:00,60.5,23.6
2023/08/24 19:40:00,60.8,23.6
2023/08/24 19:50:00,61.0,23.6
2023/08/24 20:00:00,61.4,23.6
2023/08/24 20:10:00,61.8,23.3
2023/08/24 20:20:00,62.1,23.2
2023/08/24 20:30:00,62.5,23.2
2023/08/24 20:40:00,---,23.2
2023/08/24 20:50:00,47.4,23.1
2023/08/24 21:00:00,41.3,23.0
2023/08/24 21:10:00,38.7,23.0
2023/08/24 21:20:00,38.5,22.8
2023/08/24 21:30:00,38.5,23.7
2023/08/24 21:40:00,38.5,22.6
2023/08/24 21:50:00,38.5,22.8
2023/08/24 22:00:00,38.6,22.7
2023/08/24 22:10:00,38.5,22.7
2023/08/24 22:20:00,38.6,22.7
2023/08/24 22:30:00,38.5,22.8
2023/08/24 22:40:00,38.6,22.9
2023/08/24 22:50:00,38.5,22.5
2023/08/24 23:00:00,38.5,22.8
2023/08/24 23:10:00,38.6,23.1
2023/08/24 23:20:00,38.6,23.1
2023/08/24 23:30:00,38.6,22.5
2023/08/24 23:40:00,38.5,22.3
2023/08/24 23:50:00,38.6,22.3
